Time,TemperatureF,DewpointF,PressureIn,WindDirection,WindDirectionDegrees,WindSpeedMPH,WindSpeedGustMPH,Humidity,HourlyPrecipIn,Conditions,Clouds,dailyrainin,SoftwareType,DateUTC
2013-02-18 00:00:00,31.8,22.8,29.87,SE,145,1.0,1.0,69,0.00,,,0.00,Wunderground v.1.15,2013-02-18 06:00:00,
2013-02-18 00:01:00,31.8,22.8,29.87,SE,133,2.0,2.0,69,0.00,,,0.00,Wunderground v.1.15,2013-02-18 06:01:00,
2013-02-18 00:05:00,31.8,22.8,29.87,SSW,202,1.0,3.0,69,0.00,,,0.00,Wunderground v.1.15,2013-02-18 06:05:00,
2013-02-18 00:07:00,31.8,23.1,29.87,South,176,1.0,3.0,70,0.00,,,0.00,Wunderground v.1.15,2013-02-18 06:07:00,
2013-02-18 00:10:00,31.8,23.1,29.87,SE,130,1.0,1.0,70,0.00,,,0.00,Wunderground v.1.15,2013-02-18 06:10:00,
2013-02-18 00:13:00,31.8,23.1,29.87,ESE,117,1.0,1.0,70,0.00,,,0.00,Wunderground v.1.15,2013-02-18 06:13:00,
2013-02-18 00:17:00,31.8,23.1,29.86,SE,136,1.0,2.0,70,0.00,,,0.00,Wunderground v.1.15,2013-02-18 06:17:00,
2013-02-18 00:20:00,31.9,23.2,29.86,SE,133,2.0,2.0,70,0.00,,,0.00,Wunderground v.1.15,2013-02-18 06:20:00,
2013-02-18 00:21:00,31.9,23.2,29.86,South,174,2.0,2.0,70,0.00,,,0.00,Wunderground v.1.15,2013-02-18 06:21:00,
2013-02-18 00:23:00,31.9,23.2,29.86,SE,128,2.0,4.0,70,0.00,,,0.00,Wunderground v.1.15,2013-02-18 06:23:00,
2013-02-18 00:27:00,31.9,23.2,29.86,SE,137,2.0,4.0,70,0.00,,,0.00,Wunderground v.1.15,2013-02-18 06:27:00,
2013-02-18 00:30:00,31.9,23.2,29.85,ESE,117,1.0,4.0,70,0.00,,,0.00,Wunderground v.1.15,2013-02-18 06:30:00,
2013-02-18 00:33:00,31.9,23.2,29.85,SSE,160,2.0,6.0,70,0.00,,,0.00,Wunderground v.1.15,2013-02-18 06:33:00,
2013-02-18 00:35:00,32.1,23.4,29.85,South,174,1.0,6.0,70,0.00,,,0.00,Wunderground v.1.15,2013-02-18 06:35:00,
2013-02-18 00:37:00,32.1,23.4,29.85,SE,127,1.0,6.0,70,0.00,,,0.00,Wunderground v.1.15,2013-02-18 06:37:00,
2013-02-18 00:41:00,32.1,23.4,29.85,SE,130,1.0,1.0,70,0.00,,,0.00,Wunderground v.1.15,2013-02-18 06:41:00,
2013-02-18 00:43:00,32.1,23.4,29.85,SE,138,1.0,1.0,70,0.00,,,0.00,Wunderground v.1.15,2013-02-18 06:43:00,
2013-02-18 00:45:00,32.1,23.4,29.85,ESE,114,1.0,1.0,70,0.00,,,0.00,Wunderground v.1.15,2013-02-18 06:45:00,
2013-02-18 00:51:00,32.1,23.4,29.85,SSE,157,1.0,1.0,70,0.00,,,0.00,Wunderground v.1.15,2013-02-18 06:51:00,
2013-02-18 00:57:00,32.1,23.4,29.85,South,175,1.0,3.0,70,0.00,,,0.00,Wunderground v.1.15,2013-02-18 06:57:00,
2013-02-18 01:01:00,32.1,23.4,29.84,SSE,157,2.0,2.0,70,0.00,,,0.00,Wunderground v.1.15,2013-02-18 07:01:00,
2013-02-18 01:03:00,32.1,23.8,29.84,SE,134,2.0,2.0,71,0.00,,,0.00,Wunderground v.1.15,2013-02-18 07:03:00,
2013-02-18 01:08:00,31.9,23.6,29.84,SE,134,1.0,5.0,71,0.00,,,0.00,Wunderground v.1.15,2013-02-18 07:08:00,
2013-02-18 01:13:00,31.9,23.6,29.84,SE,128,1.0,6.0,71,0.00,,,0.00,Wunderground v.1.15,2013-02-18 07:13:00,
2013-02-18 01:15:00,31.9,23.6,29.83,SSE,147,1.0,6.0,71,0.00,,,0.00,Wunderground v.1.15,2013-02-18 07:15:00,
2013-02-18 01:17:00,31.9,23.6,29.83,SE,131,2.0,6.0,71,0.00,,,0.00,Wunderground v.1.15,2013-02-18 07:17:00,
2013-02-18 01:20:00,31.9,23.6,29.83,SE,126,2.0,6.0,71,0.00,,,0.00,Wunderground v.1.15,2013-02-18 07:20:00,
2013-02-18 01:23:00,31.9,23.6,29.83,SSE,154,3.0,7.0,71,0.00,,,0.00,Wunderground v.1.15,2013-02-18 07:23:00,
2013-02-18 01:25:00,32.1,23.8,29.83,SSE,148,3.0,7.0,71,0.00,,,0.00,Wunderground v.1.15,2013-02-18 07:25:00,
2013-02-18 01:27:00,31.9,23.6,29.83,SE,141,3.0,7.0,71,0.00,,,0.00,Wunderground v.1.15,2013-02-18 07:27:00,
2013-02-18 01:31:00,31.9,23.6,29.82,SE,136,3.0,10.0,71,0.00,,,0.00,Wunderground v.1.15,2013-02-18 07:31:00,
2013-02-18 01:33:00,31.9,23.6,29.82,SE,136,2.0,10.0,71,0.00,,,0.00,Wunderground v.1.15,2013-02-18 07:33:00,
2013-02-18 01:38:00,31.9,23.9,29.82,SSE,152,3.0,10.0,72,0.00,,,0.00,Wunderground v.1.15,2013-02-18 07:38:00,
2013-02-18 01:43:00,31.9,23.9,29.82,ESE,116,2.0,4.0,72,0.00,,,0.00,Wunderground v.1.15,2013-02-18 07:43:00,
2013-02-18 01:50:00,32.1,24.1,29.82,SSE,147,1.0,4.0,72,0.00,,,0.00,Wunderground v.1.15,2013-02-18 07:50:00,
2013-02-18 01:53:00,32.2,24.2,29.82,ESE,113,2.0,7.0,72,0.00,,,0.00,Wunderground v.1.15,2013-02-18 07:53:00,
2013-02-18 01:58:00,32.2,24.2,29.82,SSE,152,2.0,7.0,72,0.00,,,0.00,Wunderground v.1.15,2013-02-18 07:58:00,
2013-02-18 02:01:00,32.3,24.3,29.81,SE,134,3.0,3.0,72,0.00,,,0.00,Wunderground v.1.15,2013-02-18 08:01:00,
2013-02-18 02:03:00,32.3,24.3,29.81,SSE,147,3.0,3.0,72,0.00,,,0.00,Wunderground v.1.15,2013-02-18 08:03:00,
2013-02-18 02:07:00,32.3,24.3,29.81,SSE,151,3.0,3.0,72,0.00,,,0.00,Wunderground v.1.15,2013-02-18 08:07:00,
2013-02-18 02:11:00,32.3,24.3,29.81,South,176,2.0,4.0,72,0.00,,,0.00,Wunderground v.1.15,2013-02-18 08:11:00,
2013-02-18 02:13:00,32.5,24.5,29.81,SSE,161,2.0,4.0,72,0.00,,,0.00,Wunderground v.1.15,2013-02-18 08:13:00,
2013-02-18 02:15:00,32.5,24.5,29.80,SSE,158,1.0,4.0,72,0.00,,,0.00,Wunderground v.1.15,2013-02-18 08:15:00,
2013-02-18 02:20:00,32.5,24.5,29.80,SSE,154,1.0,4.0,72,0.00,,,0.00,Wunderground v.1.15,2013-02-18 08:20:00,
2013-02-18 02:21:00,32.5,24.5,29.80,SE,126,1.0,5.0,72,0.00,,,0.00,Wunderground v.1.15,2013-02-18 08:21:00,
2013-02-18 02:25:00,32.5,24.8,29.80,SE,127,2.0,5.0,73,0.00,,,0.00,Wunderground v.1.15,2013-02-18 08:25:00,
2013-02-18 02:28:00,32.5,24.8,29.80,SSE,161,1.0,5.0,73,0.00,,,0.00,Wunderground v.1.15,2013-02-18 08:28:00,
2013-02-18 02:31:00,32.5,24.8,29.79,SE,137,1.0,1.0,73,0.00,,,0.00,Wunderground v.1.15,2013-02-18 08:31:00,
2013-02-18 02:33:00,32.5,24.8,29.79,SE,138,1.0,2.0,73,0.00,,,0.00,Wunderground v.1.15,2013-02-18 08:33:00,
2013-02-18 02:37:00,32.5,24.8,29.79,SE,141,1.0,2.0,73,0.00,,,0.00,Wunderground v.1.15,2013-02-18 08:37:00,
2013-02-18 02:40:00,32.3,24.6,29.79,SSE,158,1.0,5.0,73,0.00,,,0.00,Wunderground v.1.15,2013-02-18 08:40:00,
2013-02-18 02:43:00,32.3,24.6,29.79,SE,136,1.0,1.0,73,0.00,,,0.00,Wunderground v.1.15,2013-02-18 08:43:00,
2013-02-18 02:45:00,32.3,24.6,29.78,SSE,158,1.0,2.0,73,0.00,,,0.00,Wunderground v.1.15,2013-02-18 08:45:00,
2013-02-18 02:50:00,32.3,24.9,29.78,SE,130,1.0,2.0,74,0.00,,,0.00,Wunderground v.1.15,2013-02-18 08:50:00,
2013-02-18 02:51:00,32.3,24.9,29.78,SSE,150,1.0,1.0,74,0.00,,,0.00,Wunderground v.1.15,2013-02-18 08:51:00,
2013-02-18 02:53:00,32.3,24.9,29.78,SSE,151,1.0,1.0,74,0.00,,,0.00,Wunderground v.1.15,2013-02-18 08:53:00,
2013-02-18 02:57:00,32.3,24.9,29.78,SSE,164,1.0,3.0,74,0.00,,,0.00,Wunderground v.1.15,2013-02-18 08:57:00,
2013-02-18 03:00:00,32.3,24.9,29.77,SSE,151,1.0,3.0,74,0.00,,,0.00,Wunderground v.1.15,2013-02-18 09:00:00,
2013-02-18 03:05:00,32.6,25.6,29.77,South,172,1.0,2.0,75,0.00,,,0.00,Wunderground v.1.15,2013-02-18 09:05:00,
2013-02-18 03:07:00,32.9,25.5,29.77,SSE,167,1.0,2.0,74,0.00,,,0.00,Wunderground v.1.15,2013-02-18 09:07:00,
2013-02-18 03:10:00,32.9,25.5,29.77,SE,131,1.0,3.0,74,0.00,,,0.00,Wunderground v.1.15,2013-02-18 09:10:00,
2013-02-18 03:15:00,33.1,25.7,29.76,SE,136,2.0,3.0,74,0.00,,,0.00,Wunderground v.1.15,2013-02-18 09:15:00,
2013-02-18 03:17:00,33.2,25.8,29.76,SE,141,2.0,3.0,74,0.00,,,0.00,Wunderground v.1.15,2013-02-18 09:17:00,
2013-02-18 03:23:00,33.1,25.7,29.76,SSE,157,1.0,7.0,74,0.00,,,0.00,Wunderground v.1.15,2013-02-18 09:23:00,
2013-02-18 03:25:00,33.2,25.8,29.76,SE,140,1.0,7.0,74,0.00,,,0.00,Wunderground v.1.15,2013-02-18 09:25:00,
2013-02-18 03:30:00,33.2,25.8,29.75,ESE,112,2.0,10.0,74,0.00,,,0.00,Wunderground v.1.15,2013-02-18 09:30:00,
2013-02-18 03:31:00,33.2,25.8,29.75,South,181,2.0,2.0,74,0.00,,,0.00,Wunderground v.1.15,2013-02-18 09:31:00,
2013-02-18 03:35:00,33.4,26.0,29.75,SSE,147,2.0,6.0,74,0.00,,,0.00,Wunderground v.1.15,2013-02-18 09:35:00,
2013-02-18 03:37:00,33.5,26.1,29.75,SE,140,2.0,6.0,74,0.00,,,0.00,Wunderground v.1.15,2013-02-18 09:37:00,
2013-02-18 03:43:00,33.5,26.1,29.75,South,172,2.0,5.0,74,0.00,,,0.00,Wunderground v.1.15,2013-02-18 09:43:00,
2013-02-18 03:45:00,33.5,26.1,29.75,SE,131,2.0,5.0,74,0.00,,,0.00,Wunderground v.1.15,2013-02-18 09:45:00,
2013-02-18 03:47:00,33.7,26.3,29.75,SSE,160,3.0,5.0,74,0.00,,,0.00,Wunderground v.1.15,2013-02-18 09:47:00,
2013-02-18 03:53:00,34.0,26.3,29.75,SSE,158,3.0,3.0,73,0.00,,,0.00,Wunderground v.1.15,2013-02-18 09:53:00,
2013-02-18 03:55:00,34.0,26.3,29.75,SSE,150,3.0,3.0,73,0.00,,,0.00,Wunderground v.1.15,2013-02-18 09:55:00,
2013-02-18 03:57:00,34.0,26.3,29.75,SE,138,3.0,3.0,73,0.00,,,0.00,Wunderground v.1.15,2013-02-18 09:57:00,
2013-02-18 04:00:00,33.8,26.1,29.74,ESE,104,3.0,3.0,73,0.00,,,0.00,Wunderground v.1.15,2013-02-18 10:00:00,
2013-02-18 04:05:00,33.8,26.1,29.74,SSE,155,2.0,3.0,73,0.00,,,0.00,Wunderground v.1.15,2013-02-18 10:05:00,
2013-02-18 04:08:00,33.7,26.0,29.74,SE,127,2.0,3.0,73,0.00,,,0.00,Wunderground v.1.15,2013-02-18 10:08:00,
2013-02-18 04:13:00,33.7,26.3,29.74,SSE,168,2.0,7.0,74,0.00,,,0.00,Wunderground v.1.15,2013-02-18 10:13:00,
2013-02-18 04:15:00,33.7,26.0,29.74,SE,128,2.0,7.0,73,0.00,,,0.00,Wunderground v.1.15,2013-02-18 10:15:00,
2013-02-18 04:18:00,33.5,26.1,29.74,SE,145,2.0,7.0,74,0.00,,,0.00,Wunderground v.1.15,2013-02-18 10:18:00,
2013-02-18 04:21:00,33.7,26.3,29.74,SSE,165,2.0,3.0,74,0.00,,,0.00,Wunderground v.1.15,2013-02-18 10:21:00,
2013-02-18 04:25:00,33.7,26.3,29.74,SSE,164,2.0,6.0,74,0.00,,,0.00,Wunderground v.1.15,2013-02-18 10:25:00,
2013-02-18 04:27:00,33.7,26.3,29.74,SE,138,2.0,7.0,74,0.00,,,0.00,Wunderground v.1.15,2013-02-18 10:27:00,
2013-02-18 04:30:00,33.7,26.3,29.73,SE,134,3.0,7.0,74,0.00,,,0.00,Wunderground v.1.15,2013-02-18 10:30:00,
2013-02-18 04:31:00,33.7,26.3,29.73,SSE,164,3.0,3.0,74,0.00,,,0.00,Wunderground v.1.15,2013-02-18 10:31:00,
2013-02-18 04:37:00,33.5,26.1,29.73,SE,145,2.0,6.0,74,0.00,,,0.00,Wunderground v.1.15,2013-02-18 10:37:00,
2013-02-18 04:40:00,33.5,26.1,29.73,SE,131,2.0,6.0,74,0.00,,,0.00,Wunderground v.1.15,2013-02-18 10:40:00,
2013-02-18 04:45:00,33.4,26.3,29.72,South,169,3.0,7.0,75,0.00,,,0.00,Wunderground v.1.15,2013-02-18 10:45:00,
2013-02-18 04:47:00,33.5,26.4,29.72,ESE,117,3.0,7.0,75,0.00,,,0.00,Wunderground v.1.15,2013-02-18 10:47:00,
2013-02-18 04:51:00,33.5,26.4,29.72,ESE,123,3.0,6.0,75,0.00,,,0.00,Wunderground v.1.15,2013-02-18 10:51:00,
2013-02-18 04:57:00,33.5,26.4,29.72,ESE,116,3.0,7.0,75,0.00,,,0.00,Wunderground v.1.15,2013-02-18 10:57:00,
2013-02-18 05:00:00,33.5,26.4,29.72,SSE,151,3.0,4.0,75,0.00,,,0.00,Wunderground v.1.15,2013-02-18 11:00:00,
2013-02-18 05:01:00,33.5,26.4,29.72,South,178,3.0,4.0,75,0.00,,,0.00,Wunderground v.1.15,2013-02-18 11:01:00,
2013-02-18 05:07:00,33.5,26.4,29.72,SSE,150,3.0,5.0,75,0.00,,,0.00,Wunderground v.1.15,2013-02-18 11:07:00,
2013-02-18 05:10:00,33.7,26.6,29.72,SE,144,3.0,5.0,75,0.00,,,0.00,Wunderground v.1.15,2013-02-18 11:10:00,
2013-02-18 05:11:00,33.7,26.6,29.72,SSE,151,3.0,3.0,75,0.00,,,0.00,Wunderground v.1.15,2013-02-18 11:11:00,
2013-02-18 05:15:00,33.7,26.6,29.72,SE,144,2.0,3.0,75,0.00,,,0.00,Wunderground v.1.15,2013-02-18 11:15:00,
2013-02-18 05:20:00,33.7,26.6,29.72,SSE,148,3.0,3.0,75,0.00,,,0.00,Wunderground v.1.15,2013-02-18 11:20:00,
2013-02-18 05:21:00,33.7,26.9,29.72,SE,131,2.0,5.0,76,0.00,,,0.00,Wunderground v.1.15,2013-02-18 11:21:00,
2013-02-18 05:27:00,34.0,26.9,29.72,ESE,110,2.0,5.0,75,0.00,,,0.00,Wunderground v.1.15,2013-02-18 11:27:00,
2013-02-18 05:30:00,34.0,26.9,29.72,SSE,157,2.0,5.0,75,0.00,,,0.00,Wunderground v.1.15,2013-02-18 11:30:00,
2013-02-18 05:31:00,34.0,26.9,29.72,SE,127,2.0,2.0,75,0.00,,,0.00,Wunderground v.1.15,2013-02-18 11:31:00,
2013-02-18 05:33:00,33.8,26.7,29.72,SE,134,2.0,2.0,75,0.00,,,0.00,Wunderground v.1.15,2013-02-18 11:33:00,
2013-02-18 05:40:00,33.8,27.0,29.72,SE,136,3.0,8.0,76,0.00,,,0.00,Wunderground v.1.15,2013-02-18 11:40:00,
2013-02-18 05:41:00,33.8,27.0,29.72,SE,134,3.0,3.0,76,0.00,,,0.00,Wunderground v.1.15,2013-02-18 11:41:00,
2013-02-18 05:45:00,33.8,27.0,29.71,SSE,155,3.0,3.0,76,0.00,,,0.00,Wunderground v.1.15,2013-02-18 11:45:00,
2013-02-18 05:48:00,33.7,26.9,29.71,SSE,157,2.0,6.0,76,0.00,,,0.00,Wunderground v.1.15,2013-02-18 11:48:00,
2013-02-18 05:50:00,33.7,26.9,29.71,ESE,106,2.0,6.0,76,0.00,,,0.00,Wunderground v.1.15,2013-02-18 11:50:00,
2013-02-18 05:55:00,33.7,26.9,29.71,SE,134,3.0,10.0,76,0.00,,,0.00,Wunderground v.1.15,2013-02-18 11:55:00,
2013-02-18 06:00:00,33.5,27.1,29.70,SE,133,4.0,10.0,77,0.00,,,0.00,Wunderground v.1.15,2013-02-18 12:00:00,
2013-02-18 06:01:00,33.5,27.1,29.70,SSE,162,4.0,4.0,77,0.00,,,0.00,Wunderground v.1.15,2013-02-18 12:01:00,
2013-02-18 06:05:00,33.4,27.0,29.70,SSE,168,4.0,6.0,77,0.00,,,0.00,Wunderground v.1.15,2013-02-18 12:05:00,
2013-02-18 06:11:00,33.4,27.0,29.70,SE,131,3.0,9.0,77,0.00,,,0.00,Wunderground v.1.15,2013-02-18 12:11:00,
2013-02-18 06:13:00,33.4,27.3,29.70,SE,124,3.0,9.0,78,0.00,,,0.00,Wunderground v.1.15,2013-02-18 12:13:00,
2013-02-18 06:20:00,33.4,27.3,29.70,SE,144,3.0,9.0,78,0.00,,,0.00,Wunderground v.1.15,2013-02-18 12:20:00,
2013-02-18 06:23:00,33.2,27.1,29.70,SE,128,2.0,6.0,78,0.00,,,0.00,Wunderground v.1.15,2013-02-18 12:23:00,
2013-02-18 06:28:00,33.4,27.3,29.70,SE,128,2.0,6.0,78,0.00,,,0.00,Wunderground v.1.15,2013-02-18 12:28:00,
2013-02-18 06:31:00,33.5,27.4,29.69,SSE,158,2.0,2.0,78,0.00,,,0.00,Wunderground v.1.15,2013-02-18 12:31:00,
2013-02-18 06:33:00,33.5,27.7,29.69,SE,134,3.0,3.0,79,0.00,,,0.00,Wunderground v.1.15,2013-02-18 12:33:00,
2013-02-18 06:40:00,33.7,27.9,29.69,SE,128,2.0,6.0,79,0.00,,,0.00,Wunderground v.1.15,2013-02-18 12:40:00,
2013-02-18 06:41:00,33.7,27.9,29.69,SE,130,3.0,4.0,79,0.00,,,0.00,Wunderground v.1.15,2013-02-18 12:41:00,
2013-02-18 06:48:00,33.8,28.0,29.69,SSW,199,2.0,4.0,79,0.00,,,0.00,Wunderground v.1.15,2013-02-18 12:48:00,
2013-02-18 06:51:00,34.0,28.2,29.69,SE,127,2.0,8.0,79,0.00,,,0.00,Wunderground v.1.15,2013-02-18 12:51:00,
2013-02-18 06:53:00,34.0,28.2,29.69,SSE,164,2.0,8.0,79,0.00,,,0.00,Wunderground v.1.15,2013-02-18 12:53:00,
2013-02-18 06:57:00,34.1,28.3,29.69,SE,130,2.0,8.0,79,0.00,,,0.00,Wunderground v.1.15,2013-02-18 12:57:00,
2013-02-18 07:00:00,34.3,28.5,29.69,SE,128,2.0,8.0,79,0.00,,,0.00,Wunderground v.1.15,2013-02-18 13:00:00,
2013-02-18 07:05:00,34.4,28.6,29.69,SSE,147,2.0,4.0,79,0.00,,,0.00,Wunderground v.1.15,2013-02-18 13:05:00,
2013-02-18 07:07:00,34.4,28.6,29.69,SE,141,2.0,4.0,79,0.00,,,0.00,Wunderground v.1.15,2013-02-18 13:07:00,
2013-02-18 07:11:00,34.4,28.6,29.69,ESE,120,3.0,3.0,79,0.00,,,0.00,Wunderground v.1.15,2013-02-18 13:11:00,
2013-02-18 07:15:00,34.6,28.4,29.69,SSE,148,3.0,3.0,78,0.00,,,0.00,Wunderground v.1.15,2013-02-18 13:15:00,
2013-02-18 07:17:00,34.6,28.8,29.69,SSE,152,2.0,3.0,79,0.00,,,0.00,Wunderground v.1.15,2013-02-18 13:17:00,
2013-02-18 07:23:00,34.6,28.8,29.69,SSE,154,2.0,2.0,79,0.00,,,0.00,Wunderground v.1.15,2013-02-18 13:23:00,
2013-02-18 07:25:00,34.6,28.8,29.69,SSE,160,2.0,3.0,79,0.00,,,0.00,Wunderground v.1.15,2013-02-18 13:25:00,
2013-02-18 07:30:00,34.7,28.9,29.68,SE,127,2.0,5.0,79,0.00,,,0.00,Wunderground v.1.15,2013-02-18 13:30:00,
2013-02-18 07:33:00,34.7,28.9,29.68,SE,138,2.0,2.0,79,0.00,,,0.00,Wunderground v.1.15,2013-02-18 13:33:00,
2013-02-18 07:37:00,34.7,28.9,29.68,SE,128,1.0,2.0,79,0.00,,,0.00,Wunderground v.1.15,2013-02-18 13:37:00,
2013-02-18 07:40:00,34.9,29.0,29.68,SE,134,1.0,4.0,79,0.00,,,0.00,Wunderground v.1.15,2013-02-18 13:40:00,
2013-02-18 07:43:00,34.9,29.0,29.68,SSE,147,1.0,2.0,79,0.00,,,0.00,Wunderground v.1.15,2013-02-18 13:43:00,
2013-02-18 07:45:00,35.0,29.1,29.68,SE,144,2.0,2.0,79,0.00,,,0.00,Wunderground v.1.15,2013-02-18 13:45:00,
2013-02-18 07:50:00,35.2,29.3,29.68,South,175,3.0,3.0,79,0.00,,,0.00,Wunderground v.1.15,2013-02-18 13:50:00,
2013-02-18 07:51:00,35.3,29.4,29.68,South,181,3.0,3.0,79,0.00,,,0.00,Wunderground v.1.15,2013-02-18 13:51:00,
2013-02-18 07:53:00,35.4,29.5,29.68,SSE,155,3.0,3.0,79,0.00,,,0.00,Wunderground v.1.15,2013-02-18 13:53:00,
2013-02-18 07:58:00,35.9,29.7,29.68,SSE,148,2.0,3.0,78,0.00,,,0.00,Wunderground v.1.15,2013-02-18 13:58:00,
2013-02-18 08:01:00,36.3,30.1,29.68,ESE,110,2.0,3.0,78,0.00,,,0.00,Wunderground v.1.15,2013-02-18 14:01:00,
2013-02-18 08:03:00,36.6,30.4,29.68,SSE,147,2.0,5.0,78,0.00,,,0.00,Wunderground v.1.15,2013-02-18 14:03:00,
2013-02-18 08:07:00,37.2,30.3,29.68,SE,145,4.0,6.0,76,0.00,,,0.00,Wunderground v.1.15,2013-02-18 14:07:00,
2013-02-18 08:10:00,37.6,30.7,29.68,SE,128,3.0,6.0,76,0.00,,,0.00,Wunderground v.1.15,2013-02-18 14:10:00,
2013-02-18 08:13:00,38.2,31.3,29.68,SSE,160,4.0,4.0,76,0.00,,,0.00,Wunderground v.1.15,2013-02-18 14:13:00,
2013-02-18 08:17:00,38.7,31.1,29.67,SSE,167,3.0,5.0,74,0.00,,,0.00,Wunderground v.1.15,2013-02-18 14:17:00,
2013-02-18 08:20:00,38.9,31.3,29.67,SSE,152,3.0,5.0,74,0.00,,,0.00,Wunderground v.1.15,2013-02-18 14:20:00,
2013-02-18 08:25:00,39.3,31.4,29.67,SSE,148,4.0,7.0,73,0.00,,,0.00,Wunderground v.1.15,2013-02-18 14:25:00,
2013-02-18 08:30:00,39.6,31.7,29.67,SSE,164,5.0,8.0,73,0.00,,,0.00,Wunderground v.1.15,2013-02-18 14:30:00,
2013-02-18 08:35:00,40.2,31.9,29.67,SSW,193,6.0,7.0,72,0.00,,,0.00,Wunderground v.1.15,2013-02-18 14:35:00,
2013-02-18 08:37:00,40.5,32.2,29.67,South,174,5.0,7.0,72,0.00,,,0.00,Wunderground v.1.15,2013-02-18 14:37:00,
2013-02-18 08:40:00,40.7,32.4,29.67,SSE,147,5.0,9.0,72,0.00,,,0.00,Wunderground v.1.15,2013-02-18 14:40:00,
2013-02-18 08:41:00,40.9,32.2,29.67,SSW,202,5.0,7.0,71,0.00,,,0.00,Wunderground v.1.15,2013-02-18 14:41:00,
2013-02-18 08:45:00,41.3,32.6,29.67,South,186,5.0,19.0,71,0.00,,,0.00,Wunderground v.1.15,2013-02-18 14:45:00,
2013-02-18 08:47:00,41.6,32.5,29.67,ESE,113,6.0,19.0,70,0.00,,,0.00,Wunderground v.1.15,2013-02-18 14:47:00,
2013-02-18 08:53:00,42.6,33.1,29.67,SSE,151,7.0,10.0,69,0.00,,,0.00,Wunderground v.1.15,2013-02-18 14:53:00,
2013-02-18 08:57:00,43.5,33.6,29.67,South,184,7.0,10.0,68,0.00,,,0.00,Wunderground v.1.15,2013-02-18 14:57:00,
2013-02-18 09:01:00,43.9,34.0,29.66,South,172,8.0,8.0,68,0.00,,,0.00,Wunderground v.1.15,2013-02-18 15:01:00,
2013-02-18 09:05:00,44.5,34.2,29.66,SSE,157,7.0,10.0,67,0.00,,,0.00,Wunderground v.1.15,2013-02-18 15:05:00,
2013-02-18 09:07:00,44.6,33.9,29.66,SE,144,7.0,10.0,66,0.00,,,0.00,Wunderground v.1.15,2013-02-18 15:07:00,
2013-02-18 09:10:00,44.8,34.1,29.66,South,188,6.0,10.0,66,0.00,,,0.00,Wunderground v.1.15,2013-02-18 15:10:00,
2013-02-18 09:11:00,44.9,34.2,29.66,SSE,160,6.0,6.0,66,0.00,,,0.00,Wunderground v.1.15,2013-02-18 15:11:00,
2013-02-18 09:13:00,45.1,34.4,29.66,South,169,6.0,6.0,66,0.00,,,0.00,Wunderground v.1.15,2013-02-18 15:13:00,
2013-02-18 09:17:00,45.6,34.9,29.65,SSE,151,8.0,8.0,66,0.00,,,0.00,Wunderground v.1.15,2013-02-18 15:17:00,
2013-02-18 09:20:00,45.9,34.8,29.65,SSW,193,8.0,11.0,65,0.00,,,0.00,Wunderground v.1.15,2013-02-18 15:20:00,
2013-02-18 09:23:00,46.2,35.1,29.65,South,174,9.0,9.0,65,0.00,,,0.00,Wunderground v.1.15,2013-02-18 15:23:00,
2013-02-18 09:25:00,46.2,34.7,29.65,South,181,8.0,9.0,64,0.00,,,0.00,Wunderground v.1.15,2013-02-18 15:25:00,
2013-02-18 09:28:00,46.4,35.3,29.65,South,185,8.0,11.0,65,0.00,,,0.00,Wunderground v.1.15,2013-02-18 15:28:00,
2013-02-18 09:31:00,46.4,34.9,29.65,South,174,9.0,9.0,64,0.00,,,0.00,Wunderground v.1.15,2013-02-18 15:31:00,
2013-02-18 09:33:00,46.5,35.0,29.65,South,169,9.0,9.0,64,0.00,,,0.00,Wunderground v.1.15,2013-02-18 15:33:00,
2013-02-18 09:38:00,46.7,35.2,29.65,South,191,9.0,10.0,64,0.00,,,0.00,Wunderground v.1.15,2013-02-18 15:38:00,
2013-02-18 09:40:00,46.8,35.3,29.65,South,182,9.0,10.0,64,0.00,,,0.00,Wunderground v.1.15,2013-02-18 15:40:00,
2013-02-18 09:41:00,47.0,35.8,29.65,South,189,8.0,13.0,65,0.00,,,0.00,Wunderground v.1.15,2013-02-18 15:41:00,
2013-02-18 09:45:00,47.6,36.0,29.64,SSE,164,8.0,13.0,64,0.00,,,0.00,Wunderground v.1.15,2013-02-18 15:45:00,
2013-02-18 09:51:00,48.9,36.9,29.64,SSE,160,8.0,8.0,63,0.00,,,0.00,Wunderground v.1.15,2013-02-18 15:51:00,
2013-02-18 09:57:00,49.0,36.1,29.64,South,169,9.0,18.0,61,0.00,,,0.00,Wunderground v.1.15,2013-02-18 15:57:00,
2013-02-18 10:00:00,49.2,36.3,29.64,SSE,154,9.0,18.0,61,0.00,,,0.00,Wunderground v.1.15,2013-02-18 16:00:00,
2013-02-18 10:03:00,49.0,36.1,29.64,South,174,9.0,16.0,61,0.00,,,0.00,Wunderground v.1.15,2013-02-18 16:03:00,
2013-02-18 10:05:00,49.0,36.1,29.64,SSE,150,9.0,16.0,61,0.00,,,0.00,Wunderground v.1.15,2013-02-18 16:05:00,
2013-02-18 10:11:00,49.6,36.7,29.64,South,185,9.0,9.0,61,0.00,,,0.00,Wunderground v.1.15,2013-02-18 16:11:00,
2013-02-18 10:15:00,50.1,36.7,29.63,South,189,8.0,9.0,60,0.00,,,0.00,Wunderground v.1.15,2013-02-18 16:15:00,
2013-02-18 10:17:00,50.2,36.8,29.63,South,179,8.0,9.0,60,0.00,,,0.00,Wunderground v.1.15,2013-02-18 16:17:00,
2013-02-18 10:21:00,50.5,37.1,29.63,South,189,8.0,12.0,60,0.00,,,0.00,Wunderground v.1.15,2013-02-18 16:21:00,
2013-02-18 10:23:00,50.7,37.3,29.63,SSW,193,8.0,12.0,60,0.00,,,0.00,Wunderground v.1.15,2013-02-18 16:23:00,
2013-02-18 10:27:00,51.0,37.2,29.63,SSE,168,8.0,12.0,59,0.00,,,0.00,Wunderground v.1.15,2013-02-18 16:27:00,
2013-02-18 10:30:00,50.8,37.0,29.62,SW,215,9.0,12.0,59,0.00,,,0.00,Wunderground v.1.15,2013-02-18 16:30:00,
2013-02-18 10:31:00,50.7,36.9,29.62,SSW,195,8.0,8.0,59,0.00,,,0.00,Wunderground v.1.15,2013-02-18 16:31:00,
2013-02-18 10:33:00,50.7,37.3,29.62,South,182,8.0,8.0,60,0.00,,,0.00,Wunderground v.1.15,2013-02-18 16:33:00,
2013-02-18 10:38:00,50.7,37.3,29.62,South,179,9.0,10.0,60,0.00,,,0.00,Wunderground v.1.15,2013-02-18 16:38:00,
2013-02-18 10:43:00,51.4,38.0,29.62,SW,224,7.0,7.0,60,0.00,,,0.00,Wunderground v.1.15,2013-02-18 16:43:00,
2013-02-18 10:47:00,51.7,37.8,29.62,South,191,8.0,10.0,59,0.00,,,0.00,Wunderground v.1.15,2013-02-18 16:47:00,
2013-02-18 10:50:00,51.9,38.0,29.62,South,178,8.0,10.0,59,0.00,,,0.00,Wunderground v.1.15,2013-02-18 16:50:00,
2013-02-18 10:55:00,51.4,38.0,29.62,South,171,6.0,13.0,60,0.00,,,0.00,Wunderground v.1.15,2013-02-18 16:55:00,
2013-02-18 10:58:00,51.4,38.0,29.62,South,172,5.0,13.0,60,0.00,,,0.00,Wunderground v.1.15,2013-02-18 16:58:00,
2013-02-18 11:03:00,51.4,38.0,29.62,South,188,5.0,21.0,60,0.00,,,0.00,Wunderground v.1.15,2013-02-18 17:03:00,
2013-02-18 11:05:00,51.6,38.2,29.62,SSW,210,6.0,21.0,60,0.00,,,0.00,Wunderground v.1.15,2013-02-18 17:05:00,
2013-02-18 11:11:00,51.7,38.3,29.62,South,175,5.0,7.0,60,0.00,,,0.00,Wunderground v.1.15,2013-02-18 17:11:00,
2013-02-18 11:13:00,51.7,38.3,29.62,SSE,167,5.0,7.0,60,0.00,,,0.00,Wunderground v.1.15,2013-02-18 17:13:00,
2013-02-18 11:17:00,51.9,38.4,29.61,SSW,195,5.0,12.0,60,0.00,,,0.00,Wunderground v.1.15,2013-02-18 17:17:00,
2013-02-18 11:21:00,51.9,38.9,29.61,SSW,212,6.0,9.0,61,0.00,,,0.00,Wunderground v.1.15,2013-02-18 17:21:00,
2013-02-18 11:23:00,52.0,39.0,29.61,South,185,6.0,11.0,61,0.00,,,0.00,Wunderground v.1.15,2013-02-18 17:23:00,
2013-02-18 11:30:00,52.2,39.1,29.60,SSW,195,7.0,11.0,61,0.00,,,0.00,Wunderground v.1.15,2013-02-18 17:30:00,
2013-02-18 11:31:00,52.2,39.1,29.60,SSE,168,6.0,7.0,61,0.00,,,0.00,Wunderground v.1.15,2013-02-18 17:31:00,
2013-02-18 11:35:00,52.2,39.1,29.60,South,176,6.0,7.0,61,0.00,,,0.00,Wunderground v.1.15,2013-02-18 17:35:00,
2013-02-18 11:37:00,52.2,39.1,29.60,SSW,195,6.0,10.0,61,0.00,,,0.00,Wunderground v.1.15,2013-02-18 17:37:00,
2013-02-18 11:41:00,51.9,39.3,29.60,SSW,195,7.0,7.0,62,0.00,,,0.00,Wunderground v.1.15,2013-02-18 17:41:00,
2013-02-18 11:45:00,51.7,39.1,29.60,SSE,160,7.0,7.0,62,0.00,,,0.00,Wunderground v.1.15,2013-02-18 17:45:00,
2013-02-18 11:51:00,51.4,39.2,29.60,South,175,6.0,10.0,63,0.00,,,0.00,Wunderground v.1.15,2013-02-18 17:51:00,
2013-02-18 11:53:00,51.3,39.1,29.60,South,171,6.0,10.0,63,0.00,,,0.00,Wunderground v.1.15,2013-02-18 17:53:00,
2013-02-18 12:00:00,51.0,39.2,29.60,SSE,158,6.0,12.0,64,0.00,,,0.00,Wunderground v.1.15,2013-02-18 18:00:00,
2013-02-18 12:01:00,51.0,39.2,29.60,South,172,6.0,6.0,64,0.00,,,0.00,Wunderground v.1.15,2013-02-18 18:01:00,
2013-02-18 12:06:00,50.8,39.1,29.60,South,188,6.0,7.0,64,0.00,,,0.00,Wunderground v.1.15,2013-02-18 18:06:00,
2013-02-18 12:08:00,50.8,39.1,29.60,South,178,6.0,7.0,64,0.00,,,0.00,Wunderground v.1.15,2013-02-18 18:08:00,
2013-02-18 12:11:00,51.0,39.2,29.60,South,181,6.0,6.0,64,0.00,,,0.00,Wunderground v.1.15,2013-02-18 18:11:00,
2013-02-18 12:13:00,51.0,39.6,29.60,South,188,5.0,7.0,65,0.00,,,0.00,Wunderground v.1.15,2013-02-18 18:13:00,
2013-02-18 12:18:00,51.1,39.7,29.59,South,169,6.0,7.0,65,0.00,,,0.00,Wunderground v.1.15,2013-02-18 18:18:00,
2013-02-18 12:21:00,51.1,39.7,29.59,South,185,7.0,7.0,65,0.00,,,0.00,Wunderground v.1.15,2013-02-18 18:21:00,
2013-02-18 12:28:00,51.1,39.7,29.59,South,171,5.0,7.0,65,0.00,,,0.00,Wunderground v.1.15,2013-02-18 18:28:00,
2013-02-18 12:33:00,51.0,39.6,29.58,South,188,4.0,14.0,65,0.00,,,0.00,Wunderground v.1.15,2013-02-18 18:33:00,
2013-02-18 12:35:00,51.0,39.6,29.58,South,184,5.0,14.0,65,0.00,,,0.00,Wunderground v.1.15,2013-02-18 18:35:00,
2013-02-18 12:40:00,50.8,39.8,29.58,South,175,5.0,14.0,66,0.00,,,0.00,Wunderground v.1.15,2013-02-18 18:40:00,
2013-02-18 12:45:00,50.7,39.7,29.57,South,184,4.0,6.0,66,0.00,,,0.00,Wunderground v.1.15,2013-02-18 18:45:00,
2013-02-18 12:48:00,50.7,40.1,29.57,SSW,206,4.0,7.0,67,0.00,,,0.00,Wunderground v.1.15,2013-02-18 18:48:00,
2013-02-18 12:53:00,50.7,40.1,29.57,SSW,209,4.0,7.0,67,0.00,,,0.00,Wunderground v.1.15,2013-02-18 18:53:00,
2013-02-18 12:57:00,50.7,40.1,29.57,SSW,192,4.0,8.0,67,0.00,,,0.00,Wunderground v.1.15,2013-02-18 18:57:00,
2013-02-18 13:01:00,50.5,39.9,29.56,SSW,195,4.0,8.0,67,0.00,,,0.00,Wunderground v.1.15,2013-02-18 19:01:00,
2013-02-18 13:08:00,50.5,40.7,29.56,South,182,4.0,8.0,69,0.00,,,0.00,Wunderground v.1.15,2013-02-18 19:08:00,
2013-02-18 13:11:00,50.4,41.0,29.56,SSE,167,4.0,4.0,70,0.00,,,0.00,Wunderground v.1.15,2013-02-18 19:11:00,
2013-02-18 13:15:00,50.4,41.3,29.56,SSE,164,2.0,4.0,71,0.00,,,0.00,Wunderground v.1.15,2013-02-18 19:15:00,
2013-02-18 13:20:00,50.4,41.3,29.56,SSW,192,2.0,8.0,71,0.00,,,0.00,Wunderground v.1.15,2013-02-18 19:20:00,
2013-02-18 13:23:00,50.5,41.1,29.56,SSW,203,3.0,7.0,70,0.00,,,0.00,Wunderground v.1.15,2013-02-18 19:23:00,
2013-02-18 13:28:00,50.7,41.3,29.56,South,175,4.0,10.0,70,0.00,,,0.00,Wunderground v.1.15,2013-02-18 19:28:00,
2013-02-18 13:31:00,50.5,41.4,29.55,SSE,160,5.0,5.0,71,0.00,,,0.00,Wunderground v.1.15,2013-02-18 19:31:00,
2013-02-18 13:35:00,50.5,41.1,29.55,SSE,165,4.0,5.0,70,0.00,,,0.00,Wunderground v.1.15,2013-02-18 19:35:00,
2013-02-18 13:41:00,50.5,41.1,29.55,SSE,165,4.0,5.0,70,0.00,,,0.00,Wunderground v.1.15,2013-02-18 19:41:00,
2013-02-18 13:47:00,50.5,41.4,29.54,South,184,5.0,8.0,71,0.00,,,0.00,Wunderground v.1.15,2013-02-18 19:47:00,
2013-02-18 13:50:00,50.5,41.4,29.54,South,175,5.0,8.0,71,0.00,,,0.00,Wunderground v.1.15,2013-02-18 19:50:00,
2013-02-18 13:51:00,50.5,41.4,29.54,SSE,160,5.0,5.0,71,0.00,,,0.00,Wunderground v.1.15,2013-02-18 19:51:00,
2013-02-18 13:58:00,50.4,41.7,29.54,SSW,200,5.0,11.0,72,0.00,,,0.00,Wunderground v.1.15,2013-02-18 19:58:00,
2013-02-18 14:01:00,50.2,41.9,29.53,SSW,195,4.0,10.0,73,0.00,,,0.00,Wunderground v.1.15,2013-02-18 20:01:00,
2013-02-18 14:03:00,50.1,41.8,29.53,South,186,4.0,10.0,73,0.00,,,0.00,Wunderground v.1.15,2013-02-18 20:03:00,
2013-02-18 14:10:00,49.8,42.2,29.53,SSE,160,2.0,2.0,75,0.00,,,0.00,Wunderground v.1.15,2013-02-18 20:10:00,
2013-02-18 14:15:00,49.3,42.4,29.52,SSW,202,3.0,5.0,77,0.00,,,0.00,Wunderground v.1.15,2013-02-18 20:15:00,
2013-02-18 14:18:00,49.2,42.6,29.52,SSE,152,3.0,5.0,78,0.00,,,0.00,Wunderground v.1.15,2013-02-18 20:18:00,
2013-02-18 14:21:00,49.0,42.8,29.52,SSW,198,3.0,3.0,79,0.00,,,0.00,Wunderground v.1.15,2013-02-18 20:21:00,
2013-02-18 14:23:00,49.0,43.1,29.52,SSE,160,2.0,3.0,80,0.00,,,0.01,Wunderground v.1.15,2013-02-18 20:23:00,
2013-02-18 14:27:00,48.8,43.5,29.52,SSW,206,3.0,4.0,82,0.00,,,0.01,Wunderground v.1.15,2013-02-18 20:27:00,
2013-02-18 14:31:00,48.6,43.7,29.51,SSE,162,4.0,4.0,83,0.00,,,0.01,Wunderground v.1.15,2013-02-18 20:31:00,
2013-02-18 14:33:00,48.6,43.7,29.51,South,182,4.0,5.0,83,0.00,,,0.01,Wunderground v.1.15,2013-02-18 20:33:00,
2013-02-18 14:40:00,48.3,44.0,29.51,South,185,2.0,5.0,85,0.04,,,0.02,Wunderground v.1.15,2013-02-18 20:40:00,
2013-02-18 14:41:00,48.2,43.9,29.51,SSE,165,2.0,4.0,85,0.04,,,0.02,Wunderground v.1.15,2013-02-18 20:41:00,
2013-02-18 14:45:00,48.2,44.2,29.50,South,189,2.0,4.0,86,0.04,,,0.02,Wunderground v.1.15,2013-02-18 20:45:00,
2013-02-18 14:51:00,47.9,44.2,29.50,South,179,4.0,4.0,87,0.06,,,0.03,Wunderground v.1.15,2013-02-18 20:51:00,
2013-02-18 14:53:00,47.9,44.5,29.50,South,186,3.0,4.0,88,0.12,,,0.04,Wunderground v.1.15,2013-02-18 20:53:00,
2013-02-18 14:58:00,47.6,44.5,29.50,South,189,3.0,6.0,89,0.30,,,0.07,Wunderground v.1.15,2013-02-18 20:58:00,
2013-02-18 15:00:00,47.6,44.5,29.50,SSW,206,3.0,8.0,89,0.25,,,0.07,Wunderground v.1.15,2013-02-18 21:00:00,
2013-02-18 15:03:00,47.4,44.6,29.50,SSW,196,3.0,3.0,90,0.19,,,0.08,Wunderground v.1.15,2013-02-18 21:03:00,
2013-02-18 15:10:00,47.4,44.6,29.50,South,179,1.0,4.0,90,0.06,,,0.08,Wunderground v.1.15,2013-02-18 21:10:00,
2013-02-18 15:11:00,47.4,44.9,29.50,South,179,1.0,1.0,91,0.06,,,0.08,Wunderground v.1.15,2013-02-18 21:11:00,
2013-02-18 15:17:00,47.3,44.8,29.48,South,179,0.0,1.0,91,0.06,,,0.09,Wunderground v.1.15,2013-02-18 21:17:00,
2013-02-18 15:20:00,47.3,44.8,29.48,South,179,0.0,1.0,91,0.06,,,0.09,Wunderground v.1.15,2013-02-18 21:20:00,
2013-02-18 15:23:00,47.3,45.1,29.48,South,179,0.0,0.0,92,0.05,,,0.09,Wunderground v.1.15,2013-02-18 21:23:00,
2013-02-18 15:28:00,47.1,44.9,29.48,SSW,196,0.0,0.0,92,0.05,,,0.10,Wunderground v.1.15,2013-02-18 21:28:00,
2013-02-18 15:30:00,47.1,44.9,29.48,SSW,196,0.0,0.0,92,0.13,,,0.11,Wunderground v.1.15,2013-02-18 21:30:00,
2013-02-18 15:33:00,47.0,44.8,29.48,SW,234,0.0,0.0,92,0.11,,,0.11,Wunderground v.1.15,2013-02-18 21:33:00,
2013-02-18 15:38:00,46.8,44.6,29.48,SW,234,0.0,0.0,92,0.06,,,0.11,Wunderground v.1.15,2013-02-18 21:38:00,
2013-02-18 15:41:00,46.8,44.6,29.48,SW,234,0.0,0.0,92,0.05,,,0.11,Wunderground v.1.15,2013-02-18 21:41:00,
2013-02-18 15:43:00,46.7,44.5,29.48,SW,234,0.0,0.0,92,0.04,,,0.11,Wunderground v.1.15,2013-02-18 21:43:00,
2013-02-18 15:47:00,46.5,44.3,29.47,SW,234,0.0,0.0,92,0.00,,,0.12,Wunderground v.1.15,2013-02-18 21:47:00,
2013-02-18 15:50:00,46.5,44.3,29.47,SW,234,0.0,0.0,92,0.15,,,0.13,Wunderground v.1.15,2013-02-18 21:50:00,
2013-02-18 15:51:00,46.4,44.2,29.47,SW,234,0.0,0.0,92,0.15,,,0.13,Wunderground v.1.15,2013-02-18 21:51:00,
2013-02-18 15:57:00,46.2,44.3,29.47,WNW,302,0.0,3.0,93,0.34,,,0.16,Wunderground v.1.15,2013-02-18 21:57:00,
2013-02-18 16:00:00,46.1,44.2,29.47,NW,323,1.0,11.0,93,0.27,,,0.17,Wunderground v.1.15,2013-02-18 22:00:00,
2013-02-18 16:01:00,46.1,44.2,29.47,WNW,298,2.0,13.0,93,0.27,,,0.18,Wunderground v.1.15,2013-02-18 22:01:00,
2013-02-18 16:06:00,44.3,41.8,29.47,NNW,328,5.0,13.0,91,0.68,,,0.22,Wunderground v.1.15,2013-02-18 22:06:00,
2013-02-18 16:11:00,42.2,40.0,29.47,WNW,282,7.0,7.0,92,0.53,,,0.28,Wunderground v.1.15,2013-02-18 22:11:00,
2013-02-18 16:13:00,41.7,39.5,29.47,North,356,6.0,13.0,92,0.24,,,0.28,Wunderground v.1.15,2013-02-18 22:13:00,
2013-02-18 16:15:00,41.5,39.3,29.47,West,278,6.0,13.0,92,0.20,,,0.29,Wunderground v.1.15,2013-02-18 22:15:00,
2013-02-18 16:18:00,41.2,39.1,29.47,NNW,346,6.0,13.0,92,0.19,,,0.29,Wunderground v.1.15,2013-02-18 22:18:00,
2013-02-18 16:21:00,41.0,39.1,29.47,WNW,291,4.0,4.0,93,0.15,,,0.30,Wunderground v.1.15,2013-02-18 22:21:00,
2013-02-18 16:23:00,40.9,39.0,29.47,NW,315,3.0,4.0,93,0.12,,,0.31,Wunderground v.1.15,2013-02-18 22:23:00,
2013-02-18 16:30:00,40.5,38.6,29.49,NNW,330,2.0,7.0,93,0.15,,,0.32,Wunderground v.1.15,2013-02-18 22:30:00,
2013-02-18 16:31:00,40.5,38.6,29.49,WNW,282,2.0,2.0,93,0.11,,,0.32,Wunderground v.1.15,2013-02-18 22:31:00,
2013-02-18 16:38:00,40.0,38.4,29.49,NNW,329,0.0,2.0,94,0.09,,,0.33,Wunderground v.1.15,2013-02-18 22:38:00,
2013-02-18 16:40:00,40.0,38.4,29.49,NNW,333,0.0,2.0,94,0.11,,,0.34,Wunderground v.1.15,2013-02-18 22:40:00,
2013-02-18 16:43:00,39.7,38.1,29.49,WNW,301,1.0,1.0,94,0.11,,,0.34,Wunderground v.1.15,2013-02-18 22:43:00,
2013-02-18 16:48:00,39.5,37.9,29.48,WNW,295,2.0,6.0,94,0.06,,,0.34,Wunderground v.1.15,2013-02-18 22:48:00,
2013-02-18 16:51:00,39.3,37.7,29.48,NW,326,3.0,6.0,94,0.06,,,0.35,Wunderground v.1.15,2013-02-18 22:51:00,
2013-02-18 16:53:00,39.2,37.6,29.48,WNW,285,3.0,6.0,94,0.19,,,0.36,Wunderground v.1.15,2013-02-18 22:53:00,
2013-02-18 16:57:00,38.9,37.3,29.48,WNW,288,3.0,6.0,94,0.33,,,0.38,Wunderground v.1.15,2013-02-18 22:57:00,
2013-02-18 17:01:00,38.7,37.1,29.52,WNW,296,3.0,7.0,94,0.22,,,0.39,Wunderground v.1.15,2013-02-18 23:01:00,
2013-02-18 17:03:00,38.6,37.0,29.52,NNW,343,4.0,7.0,94,0.24,,,0.40,Wunderground v.1.15,2013-02-18 23:03:00,
2013-02-18 17:07:00,38.3,36.7,29.52,NW,315,4.0,7.0,94,0.31,,,0.42,Wunderground v.1.15,2013-02-18 23:07:00,
2013-02-18 17:13:00,37.9,36.3,29.52,North,0,4.0,6.0,94,0.26,,,0.45,Wunderground v.1.15,2013-02-18 23:13:00,
2013-02-18 17:20:00,37.0,35.4,29.52,NNW,339,4.0,6.0,94,0.18,,,0.47,Wunderground v.1.15,2013-02-18 23:20:00,
2013-02-18 17:21:00,36.9,35.3,29.52,NW,309,4.0,11.0,94,0.18,,,0.47,Wunderground v.1.15,2013-02-18 23:21:00,
2013-02-18 17:26:00,36.3,34.7,29.52,WNW,301,3.0,11.0,94,0.14,,,0.48,Wunderground v.1.15,2013-02-18 23:26:00,
2013-02-18 17:28:00,36.0,34.2,29.52,NW,319,3.0,11.0,93,0.18,,,0.49,Wunderground v.1.15,2013-02-18 23:28:00,
2013-02-18 17:30:00,35.6,33.8,29.54,NNW,336,3.0,11.0,93,0.30,,,0.50,Wunderground v.1.15,2013-02-18 23:30:00,
2013-02-18 17:33:00,34.9,33.1,29.54,NW,315,3.0,6.0,93,0.11,,,0.50,Wunderground v.1.15,2013-02-18 23:33:00,
2013-02-18 17:41:00,33.2,31.4,29.54,North,349,2.0,2.0,93,0.04,,,0.50,Wunderground v.1.15,2013-02-18 23:41:00,
2013-02-18 17:43:00,33.1,31.3,29.54,NW,318,1.0,2.0,93,0.04,,,0.50,Wunderground v.1.15,2013-02-18 23:43:00,
2013-02-18 17:48:00,32.6,31.1,29.57,NNW,328,1.0,2.0,94,0.00,,,0.50,Wunderground v.1.15,2013-02-18 23:48:00,
2013-02-18 17:51:00,32.5,31.0,29.57,NW,316,1.0,1.0,94,0.00,,,0.50,Wunderground v.1.15,2013-02-18 23:51:00,
2013-02-18 17:53:00,32.5,31.0,29.57,WNW,287,1.0,3.0,94,0.00,,,0.50,Wunderground v.1.15,2013-02-18 23:53:00,
2013-02-18 18:01:00,32.2,30.7,29.56,NNW,337,0.0,0.0,94,0.00,,,0.50,Wunderground v.1.15,2013-02-19 00:01:00,
2013-02-18 18:03:00,32.2,30.7,29.56,NW,322,0.0,0.0,94,0.00,,,0.50,Wunderground v.1.15,2013-02-19 00:03:00,
2013-02-18 18:08:00,32.2,30.9,29.56,NNW,330,0.0,0.0,95,0.00,,,0.50,Wunderground v.1.15,2013-02-19 00:08:00,
2013-02-18 18:10:00,32.2,30.9,29.56,NW,319,0.0,0.0,95,0.00,,,0.50,Wunderground v.1.15,2013-02-19 00:10:00,
2013-02-18 18:11:00,32.1,30.8,29.56,NW,309,0.0,0.0,95,0.00,,,0.50,Wunderground v.1.15,2013-02-19 00:11:00,
2013-02-18 18:13:00,32.1,30.8,29.56,NW,308,0.0,0.0,95,0.00,,,0.50,Wunderground v.1.15,2013-02-19 00:13:00,
2013-02-18 18:15:00,32.1,30.8,29.57,NW,305,0.0,0.0,95,0.00,,,0.50,Wunderground v.1.15,2013-02-19 00:15:00,
2013-02-18 18:18:00,32.1,30.8,29.57,NW,318,0.0,0.0,95,0.00,,,0.50,Wunderground v.1.15,2013-02-19 00:18:00,
2013-02-18 18:21:00,32.1,30.8,29.57,WNW,284,0.0,0.0,95,0.00,,,0.50,Wunderground v.1.15,2013-02-19 00:21:00,
2013-02-18 18:23:00,32.1,30.8,29.57,NW,320,0.0,0.0,95,0.00,,,0.50,Wunderground v.1.15,2013-02-19 00:23:00,
2013-02-18 18:27:00,32.1,30.8,29.57,NNW,337,0.0,0.0,95,0.00,,,0.50,Wunderground v.1.15,2013-02-19 00:27:00,
2013-02-18 18:30:00,32.1,30.8,29.59,NW,309,0.0,0.0,95,0.00,,,0.50,Wunderground v.1.15,2013-02-19 00:30:00,
2013-02-18 18:31:00,32.1,30.8,29.59,NW,309,0.0,0.0,95,0.00,,,0.50,Wunderground v.1.15,2013-02-19 00:31:00,
2013-02-18 18:33:00,32.1,30.8,29.59,NNW,343,0.0,0.0,95,0.00,,,0.50,Wunderground v.1.15,2013-02-19 00:33:00,
2013-02-18 18:35:00,32.1,30.8,29.59,NNW,329,0.0,0.0,95,0.00,,,0.50,Wunderground v.1.15,2013-02-19 00:35:00,
2013-02-18 18:58:00,31.8,30.8,29.59,WNW,292,0.0,0.0,96,0.00,,,0.50,Wunderground v.1.15,2013-02-19 00:58:00,
2013-02-18 19:00:00,31.6,30.6,29.61,WNW,298,0.0,0.0,96,0.00,,,0.50,Wunderground v.1.15,2013-02-19 01:00:00,
2013-02-18 19:07:00,31.5,30.5,29.61,NW,311,0.0,0.0,96,0.00,,,0.50,Wunderground v.1.15,2013-02-19 01:07:00,
2013-02-18 19:09:00,31.3,30.3,29.61,WNW,299,0.0,0.0,96,0.00,,,0.50,Wunderground v.1.15,2013-02-19 01:09:00,
2013-02-18 19:13:00,31.2,30.2,29.61,NW,305,0.0,0.0,96,0.00,,,0.50,Wunderground v.1.15,2013-02-19 01:13:00,
2013-02-18 19:15:00,30.9,29.9,29.63,NNW,337,0.0,0.0,96,0.00,,,0.50,Wunderground v.1.15,2013-02-19 01:15:00,
2013-02-18 19:17:00,30.6,29.3,29.63,NNW,336,0.0,0.0,95,0.00,,,0.50,Wunderground v.1.15,2013-02-19 01:17:00,
2013-02-18 19:21:00,30.4,29.4,29.63,NW,318,0.0,0.0,96,0.00,,,0.50,Wunderground v.1.15,2013-02-19 01:21:00,
2013-02-18 19:23:00,30.3,29.3,29.63,NNW,329,0.0,0.0,96,0.00,,,0.50,Wunderground v.1.15,2013-02-19 01:23:00,
2013-02-18 19:27:00,30.3,29.3,29.63,NW,311,0.0,0.0,96,0.00,,,0.50,Wunderground v.1.15,2013-02-19 01:27:00,
2013-02-18 19:30:00,30.1,29.1,29.63,WNW,284,0.0,0.0,96,0.00,,,0.50,Wunderground v.1.15,2013-02-19 01:30:00,
2013-02-18 19:33:00,30.0,29.0,29.63,NNW,332,0.0,0.0,96,0.00,,,0.50,Wunderground v.1.15,2013-02-19 01:33:00,
2013-02-18 19:49:00,28.7,27.4,29.64,NW,311,0.0,0.0,95,0.00,,,0.50,Wunderground v.1.15,2013-02-19 01:49:00,
2013-02-18 19:51:00,28.7,27.4,29.64,NNW,330,0.0,0.0,95,0.00,,,0.50,Wunderground v.1.15,2013-02-19 01:51:00,
2013-02-18 19:53:00,28.5,27.3,29.64,NW,323,0.0,0.0,95,0.00,,,0.50,Wunderground v.1.15,2013-02-19 01:53:00,
2013-02-18 19:57:00,28.2,27.0,29.64,NNW,339,0.0,0.0,95,0.00,,,0.50,Wunderground v.1.15,2013-02-19 01:57:00,
2013-02-18 19:59:00,28.2,27.0,29.65,NNW,328,0.0,0.0,95,0.00,,,0.50,Wunderground v.1.15,2013-02-19 01:59:00,
2013-02-18 20:03:00,28.1,26.9,29.65,NW,325,0.0,0.0,95,0.00,,,0.50,Wunderground v.1.15,2013-02-19 02:03:00,
2013-02-18 20:05:00,27.9,26.4,29.65,NNW,330,0.0,0.0,94,0.00,,,0.50,Wunderground v.1.15,2013-02-19 02:05:00,
2013-02-18 20:10:00,27.9,26.4,29.65,NW,312,0.0,0.0,94,0.00,,,0.50,Wunderground v.1.15,2013-02-19 02:10:00,
2013-02-18 20:11:00,27.8,26.3,29.65,West,277,0.0,0.0,94,0.00,,,0.50,Wunderground v.1.15,2013-02-19 02:11:00,
2013-02-18 20:17:00,27.5,26.0,29.64,NW,325,0.0,0.0,94,0.00,,,0.50,Wunderground v.1.15,2013-02-19 02:17:00,
2013-02-18 20:20:00,27.3,25.8,29.64,NW,322,0.0,0.0,94,0.00,,,0.50,Wunderground v.1.15,2013-02-19 02:20:00,
2013-02-18 20:21:00,27.2,25.7,29.64,NW,311,0.0,0.0,94,0.00,,,0.50,Wunderground v.1.15,2013-02-19 02:21:00,
2013-02-18 20:25:00,27.0,25.5,29.64,NW,312,0.0,0.0,94,0.00,,,0.50,Wunderground v.1.15,2013-02-19 02:25:00,
2013-02-18 20:27:00,26.9,25.1,29.64,NNW,328,0.0,0.0,93,0.00,,,0.50,Wunderground v.1.15,2013-02-19 02:27:00,
2013-02-18 20:33:00,26.4,24.7,29.66,NW,304,0.0,0.0,93,0.00,,,0.50,Wunderground v.1.15,2013-02-19 02:33:00,
2013-02-18 20:37:00,26.3,24.6,29.66,NW,309,0.0,0.0,93,0.00,,,0.50,Wunderground v.1.15,2013-02-19 02:37:00,
2013-02-18 20:41:00,26.1,24.4,29.66,WNW,289,0.0,0.0,93,0.00,,,0.50,Wunderground v.1.15,2013-02-19 02:41:00,
2013-02-18 20:43:00,26.0,24.0,29.66,NW,304,0.0,0.0,92,0.00,,,0.50,Wunderground v.1.15,2013-02-19 02:43:00,
2013-02-18 20:50:00,25.5,23.5,29.68,NW,311,0.0,0.0,92,0.00,,,0.50,Wunderground v.1.15,2013-02-19 02:50:00,
2013-02-18 20:51:00,25.4,23.4,29.68,NW,308,0.0,0.0,92,0.00,,,0.50,Wunderground v.1.15,2013-02-19 02:51:00,
2013-02-18 20:53:00,25.2,23.2,29.68,NW,309,0.0,0.0,92,0.00,,,0.50,Wunderground v.1.15,2013-02-19 02:53:00,
2013-02-18 21:01:00,25.0,22.7,29.69,WNW,296,0.0,0.0,91,0.00,,,0.50,Wunderground v.1.15,2013-02-19 03:01:00,
2013-02-18 21:05:00,24.8,22.5,29.69,WNW,295,0.0,0.0,91,0.00,,,0.50,Wunderground v.1.15,2013-02-19 03:05:00,
2013-02-18 21:09:00,24.5,22.0,29.69,WNW,299,0.0,0.0,90,0.00,,,0.50,Wunderground v.1.15,2013-02-19 03:09:00,
2013-02-18 21:15:00,24.4,21.9,29.71,NW,313,0.0,0.0,90,0.00,,,0.50,Wunderground v.1.15,2013-02-19 03:15:00,
2013-02-18 21:21:00,24.1,21.3,29.71,NW,320,0.0,0.0,89,0.00,,,0.50,Wunderground v.1.15,2013-02-19 03:21:00,
2013-02-18 21:23:00,24.1,21.3,29.71,NW,304,0.0,0.0,89,0.00,,,0.50,Wunderground v.1.15,2013-02-19 03:23:00,
2013-02-18 21:27:00,24.1,21.3,29.71,WNW,284,0.0,0.0,89,0.00,,,0.50,Wunderground v.1.15,2013-02-19 03:27:00,